Location: Prague
(50.0830°N, 14.4670°E)
Time: 23:09:41
(UTC+01:00)

BlueWalker 3 - Pass Details

Date: 09 December 2022
Orbit: 499 x 517 km, 53.2° (Epoch: 04 February)

Event Time Altitude Azimuth Distance (km) Brightness Sun altitude
Rises 18:11:02 0° 292° (WNW) 2,628 6.5 -19.9°
Reaches altitude 10° 18:13:19 10° 285° (WNW) 1,735 5.6 -20.3°
Maximum altitude 18:17:01 40° 215° (SW) 758 3.1 -20.8°
Enters shadow 18:18:50 24° 161° (SSE) 1,077 3.5 -21.1°
